TAM3401 SBGR-SBCA

Flight info

Callsign TAM3401
Flight time 1h 12m
Altitude 36000
Route ASETA UZ152 ARNIL
Aircraft A320/M-SDE3FGHIRWY/LB1

Departure

Time 2026-05-08 17:02
Airport São Paulo/Guarulhos–Governor André Franco Montoro International Airport (SBGR)

Arrival

Time 2026-05-08 18:14
Airport Coronel Adalberto Mendes da Silva Airport (SBCA)
Time Latitude Longitude Altitude Speed Heading
2026-05-08 16:48 -23.42864 -46.48345 2462 ft 0 kts 85°
2026-05-08 16:56 -23.42865 -46.48369 2461 ft 4 kts 93°
2026-05-08 16:57 -23.42861 -46.48398 2461 ft 4 kts 108°
2026-05-08 16:57 -23.42850 -46.48422 2467 ft 4 kts 143°
2026-05-08 16:57 -23.42839 -46.48429 2463 ft 4 kts 180°
2026-05-08 16:57 -23.42861 -46.48430 2461 ft 1 kts 180°
2026-05-08 16:59 -23.42863 -46.48430 2461 ft 1 kts 180°
2026-05-08 16:59 -23.42900 -46.48438 2463 ft 11 kts 197°
2026-05-08 17:00 -23.43009 -46.48451 2461 ft 19 kts 179°
2026-05-08 17:00 -23.43139 -46.48418 2462 ft 20 kts 163°
2026-05-08 17:00 -23.43277 -46.48376 2463 ft 21 kts 166°
2026-05-08 17:00 -23.43406 -46.48309 2461 ft 21 kts 116°
2026-05-08 17:01 -23.43402 -46.48205 2474 ft 21 kts 77°
2026-05-08 17:01 -23.43338 -46.47990 2464 ft 54 kts 72°
2026-05-08 17:01 -23.43166 -46.47367 2462 ft 115 kts 73°
2026-05-08 17:01 -23.42794 -46.45962 2492 ft 171 kts 66°
2026-05-08 17:02 -23.42484 -46.44714 3053 ft 175 kts 65°
2026-05-08 17:02 -23.42230 -46.43815 3122 ft 193 kts 65°
2026-05-08 17:02 -23.41580 -46.41827 3433 ft 226 kts 66°
2026-05-08 17:02 -23.41255 -46.40743 3902 ft 229 kts 70°
2026-05-08 17:03 -23.41150 -46.39567 4405 ft 238 kts 90°
2026-05-08 17:03 -23.41638 -46.37925 5006 ft 253 kts 121°
2026-05-08 17:03 -23.42977 -46.36664 5689 ft 260 kts 159°
2026-05-08 17:03 -23.44731 -46.36384 6421 ft 256 kts 193°
2026-05-08 17:04 -23.46314 -46.37134 7120 ft 245 kts 228°
2026-05-08 17:04 -23.47367 -46.38588 7694 ft 249 kts 245°
2026-05-08 17:04 -23.48323 -46.40262 8064 ft 272 kts 245°
2026-05-08 17:04 -23.48642 -46.40831 8228 ft 277 kts 245°
2026-05-08 17:05 -23.49667 -46.42658 8912 ft 287 kts 244°
2026-05-08 17:05 -23.50735 -46.44543 9755 ft 291 kts 244°
2026-05-08 17:05 -23.51371 -46.45914 10236 ft 292 kts 255°
2026-05-08 17:05 -23.51728 -46.47321 10402 ft 303 kts 262°
2026-05-08 17:06 -23.52186 -46.49634 10797 ft 318 kts 263°
2026-05-08 17:06 -23.52630 -46.52022 11437 ft 325 kts 263°
2026-05-08 17:06 -23.52815 -46.53021 11728 ft 327 kts 263°
2026-05-08 17:06 -23.53137 -46.54758 12263 ft 330 kts 262°
2026-05-08 17:07 -23.53588 -46.57171 12995 ft 334 kts 263°
2026-05-08 17:07 -23.53728 -46.57916 13219 ft 335 kts 262°
2026-05-08 17:07 -23.54200 -46.60415 13921 ft 340 kts 262°
2026-05-08 17:07 -23.54580 -46.62409 14443 ft 342 kts 262°
2026-05-08 17:08 -23.54675 -46.62915 14582 ft 342 kts 262°
2026-05-08 17:08 -23.55162 -46.65474 15226 ft 346 kts 262°
2026-05-08 17:08 -23.55653 -46.68018 15885 ft 349 kts 261°
2026-05-08 17:08 -23.56176 -46.70618 16522 ft 353 kts 260°
2026-05-08 17:09 -23.56720 -46.73250 17177 ft 357 kts 260°
2026-05-08 17:09 -23.57275 -46.75904 17850 ft 360 kts 260°
2026-05-08 17:09 -23.57834 -46.78580 18457 ft 364 kts 261°
2026-05-08 17:09 -23.58393 -46.81271 19065 ft 365 kts 261°
2026-05-08 17:10 -23.58953 -46.83990 19654 ft 368 kts 260°
2026-05-08 17:10 -23.59512 -46.86719 20249 ft 371 kts 260°
2026-05-08 17:10 -23.60073 -46.89467 20888 ft 372 kts 260°
2026-05-08 17:10 -23.60635 -46.92230 21529 ft 374 kts 260°
2026-05-08 17:11 -23.61202 -46.95005 22174 ft 376 kts 260°
2026-05-08 17:11 -23.61774 -46.97807 22821 ft 379 kts 260°
2026-05-08 17:11 -23.62346 -47.00617 23535 ft 380 kts 260°
2026-05-08 17:11 -23.62917 -47.03440 24130 ft 382 kts 261°
2026-05-08 17:12 -23.63491 -47.06279 24716 ft 384 kts 261°
2026-05-08 17:12 -23.64071 -47.09132 25296 ft 386 kts 261°
2026-05-08 17:12 -23.64646 -47.11962 25877 ft 388 kts 261°
2026-05-08 17:12 -23.65230 -47.14851 26445 ft 390 kts 261°
2026-05-08 17:13 -23.65814 -47.17746 27016 ft 393 kts 261°
2026-05-08 17:13 -23.66403 -47.20673 27617 ft 394 kts 262°
2026-05-08 17:13 -23.66993 -47.23602 28183 ft 396 kts 262°
2026-05-08 17:13 -23.67587 -47.26551 28735 ft 398 kts 262°
2026-05-08 17:14 -23.68183 -47.29511 29273 ft 401 kts 262°
2026-05-08 17:14 -23.68785 -47.32490 29787 ft 403 kts 262°
2026-05-08 17:14 -23.69389 -47.35490 30240 ft 406 kts 262°
2026-05-08 17:14 -23.69986 -47.38473 30655 ft 408 kts 262°
2026-05-08 17:15 -23.70592 -47.41500 31089 ft 409 kts 262°
2026-05-08 17:15 -23.71198 -47.44541 31546 ft 408 kts 262°
2026-05-08 17:15 -23.71801 -47.47556 32127 ft 405 kts 262°
2026-05-08 17:15 -23.72403 -47.50552 32722 ft 402 kts 262°
2026-05-08 17:16 -23.72999 -47.53525 33319 ft 399 kts 262°
2026-05-08 17:16 -23.73590 -47.56474 33896 ft 396 kts 262°
2026-05-08 17:16 -23.74165 -47.59363 34402 ft 394 kts 262°
2026-05-08 17:16 -23.74744 -47.62280 34888 ft 392 kts 262°
2026-05-08 17:17 -23.75319 -47.65179 35340 ft 390 kts 262°
2026-05-08 17:17 -23.75894 -47.68069 35764 ft 389 kts 262°
2026-05-08 17:17 -23.76473 -47.70966 35917 ft 389 kts 262°
2026-05-08 17:17 -23.77047 -47.73840 35950 ft 385 kts 262°
2026-05-08 17:18 -23.78176 -47.79526 35940 ft 382 kts 262°
2026-05-08 17:18 -23.79290 -47.85169 35938 ft 381 kts 262°
2026-05-08 17:19 -23.80404 -47.90822 35937 ft 381 kts 262°
2026-05-08 17:19 -23.81514 -47.96498 35939 ft 381 kts 262°
2026-05-08 17:20 -23.82619 -48.02156 35953 ft 381 kts 262°
2026-05-08 17:20 -23.83729 -48.07820 35946 ft 382 kts 262°
2026-05-08 17:21 -23.84840 -48.13492 35942 ft 382 kts 262°
2026-05-08 17:21 -23.85941 -48.19133 35942 ft 382 kts 262°
2026-05-08 17:22 -23.87053 -48.24819 35922 ft 382 kts 262°
2026-05-08 17:22 -23.88158 -48.30510 35915 ft 383 kts 262°
2026-05-08 17:23 -23.89266 -48.36212 35911 ft 384 kts 262°
2026-05-08 17:23 -23.90376 -48.41955 35902 ft 387 kts 262°
2026-05-08 17:24 -23.91485 -48.47701 35900 ft 390 kts 262°
2026-05-08 17:24 -23.92607 -48.53525 35899 ft 392 kts 262°
2026-05-08 17:25 -23.93741 -48.59376 35909 ft 394 kts 262°
2026-05-08 17:25 -23.94869 -48.65242 35916 ft 394 kts 262°
2026-05-08 17:26 -23.95988 -48.71122 35915 ft 395 kts 262°
2026-05-08 17:26 -23.97106 -48.77014 35920 ft 396 kts 262°
2026-05-08 17:27 -23.98235 -48.82912 35920 ft 396 kts 262°
2026-05-08 17:27 -23.99359 -48.88789 35926 ft 396 kts 262°
2026-05-08 17:28 -24.00479 -48.94691 35926 ft 396 kts 262°
2026-05-08 17:28 -24.01592 -49.00604 35929 ft 397 kts 262°
2026-05-08 17:29 -24.02713 -49.06522 35933 ft 397 kts 262°
2026-05-08 17:29 -24.03831 -49.12439 35942 ft 397 kts 262°
2026-05-08 17:30 -24.04940 -49.18331 35944 ft 398 kts 262°
2026-05-08 17:30 -24.06050 -49.24261 35941 ft 398 kts 262°
2026-05-08 17:31 -24.07159 -49.30189 35941 ft 398 kts 262°
2026-05-08 17:31 -24.08271 -49.36130 35946 ft 398 kts 262°
2026-05-08 17:32 -24.09385 -49.42091 35940 ft 399 kts 262°
2026-05-08 17:32 -24.10494 -49.48045 35946 ft 399 kts 262°
2026-05-08 17:33 -24.11594 -49.53960 35955 ft 399 kts 262°
2026-05-08 17:33 -24.12700 -49.59921 35950 ft 399 kts 262°
2026-05-08 17:34 -24.13800 -49.65888 35954 ft 400 kts 262°
2026-05-08 17:34 -24.14903 -49.71855 35954 ft 400 kts 262°
2026-05-08 17:35 -24.15998 -49.77793 35957 ft 400 kts 263°
2026-05-08 17:35 -24.17096 -49.83778 35955 ft 401 kts 263°
2026-05-08 17:36 -24.18193 -49.89773 35958 ft 401 kts 263°
2026-05-08 17:36 -24.19290 -49.95771 35959 ft 401 kts 263°
2026-05-08 17:37 -24.20383 -50.01769 35961 ft 401 kts 263°
2026-05-08 17:37 -24.21470 -50.07713 35974 ft 399 kts 263°
2026-05-08 17:38 -24.22553 -50.13678 35979 ft 398 kts 263°
2026-05-08 17:38 -24.23631 -50.19629 35999 ft 398 kts 264°
2026-05-08 17:39 -24.24701 -50.25576 35995 ft 398 kts 264°
2026-05-08 17:39 -24.25765 -50.31524 35989 ft 397 kts 264°
2026-05-08 17:40 -24.26830 -50.37465 35982 ft 397 kts 264°
2026-05-08 17:40 -24.27891 -50.43370 35994 ft 397 kts 264°
2026-05-08 17:41 -24.28958 -50.49309 35989 ft 397 kts 264°
2026-05-08 17:41 -24.30023 -50.55240 35984 ft 396 kts 264°
2026-05-08 17:42 -24.31082 -50.61170 35976 ft 396 kts 264°
2026-05-08 17:42 -24.32133 -50.67097 35995 ft 396 kts 265°
2026-05-08 17:43 -24.33176 -50.73009 35990 ft 394 kts 265°
2026-05-08 17:43 -24.34210 -50.78879 35984 ft 393 kts 265°
2026-05-08 17:44 -24.35258 -50.84805 35982 ft 393 kts 265°
2026-05-08 17:44 -24.36289 -50.90655 35994 ft 392 kts 264°
2026-05-08 17:45 -24.37324 -50.96540 35986 ft 392 kts 264°
2026-05-08 17:45 -24.38350 -51.02405 35979 ft 391 kts 265°
2026-05-08 17:46 -24.39363 -51.08224 35968 ft 391 kts 264°
2026-05-08 17:46 -24.40392 -51.14082 35963 ft 390 kts 264°
2026-05-08 17:47 -24.41240 -51.18945 35968 ft 390 kts 265°
2026-05-08 17:47 -24.42258 -51.24813 35966 ft 390 kts 264°
2026-05-08 17:48 -24.43276 -51.30674 35964 ft 390 kts 264°
2026-05-08 17:48 -24.44286 -51.36535 35975 ft 390 kts 264°
2026-05-08 17:49 -24.45283 -51.42344 35964 ft 390 kts 264°
2026-05-08 17:49 -24.46286 -51.48195 35958 ft 390 kts 264°
2026-05-08 17:50 -24.47290 -51.54058 36914 ft 394 kts 262°
2026-05-08 17:50 -24.47801 -51.57037 36771 ft 399 kts 262°
2026-05-08 17:50 -24.48317 -51.60042 36194 ft 402 kts 262°
2026-05-08 17:51 -24.48832 -51.63043 35972 ft 400 kts 262°
2026-05-08 17:51 -24.49346 -51.66060 35957 ft 403 kts 262°
2026-05-08 17:51 -24.50379 -51.72133 35069 ft 401 kts 264°
2026-05-08 17:52 -24.50888 -51.75121 35188 ft 396 kts 264°
2026-05-08 17:52 -24.51395 -51.78090 34921 ft 395 kts 264°
2026-05-08 17:52 -24.52398 -51.84031 34464 ft 395 kts 264°
2026-05-08 17:53 -24.52901 -51.87009 34231 ft 398 kts 264°
2026-05-08 17:53 -24.53410 -51.89994 34014 ft 398 kts 264°
2026-05-08 17:53 -24.53917 -51.92973 33727 ft 398 kts 264°
2026-05-08 17:53 -24.54417 -51.95933 33455 ft 399 kts 264°
2026-05-08 17:54 -24.54919 -51.98949 33172 ft 399 kts 264°
2026-05-08 17:54 -24.55425 -52.01958 32898 ft 402 kts 264°
2026-05-08 17:54 -24.55924 -52.04988 32644 ft 401 kts 264°
2026-05-08 17:54 -24.56436 -52.08000 32393 ft 400 kts 264°
2026-05-08 17:55 -24.56939 -52.10990 32114 ft 398 kts 264°
2026-05-08 17:55 -24.57436 -52.13946 31596 ft 391 kts 264°
2026-05-08 17:55 -24.57934 -52.16875 31064 ft 388 kts 264°
2026-05-08 17:55 -24.58423 -52.19767 30526 ft 384 kts 264°
2026-05-08 17:56 -24.58891 -52.22635 30000 ft 380 kts 264°
2026-05-08 17:56 -24.59358 -52.25486 29415 ft 379 kts 264°
2026-05-08 17:56 -24.59825 -52.28320 28913 ft 372 kts 264°
2026-05-08 17:56 -24.60280 -52.31069 28410 ft 369 kts 264°
2026-05-08 17:57 -24.60739 -52.33834 27925 ft 366 kts 264°
2026-05-08 17:57 -24.61199 -52.36598 27425 ft 368 kts 264°
2026-05-08 17:57 -24.61661 -52.39357 26935 ft 366 kts 264°
2026-05-08 17:57 -24.62112 -52.42106 26461 ft 366 kts 264°
2026-05-08 17:58 -24.62565 -52.44840 25980 ft 364 kts 264°
2026-05-08 17:58 -24.63019 -52.47572 25521 ft 363 kts 263°
2026-05-08 17:58 -24.63473 -52.50306 25070 ft 363 kts 264°
2026-05-08 17:58 -24.63922 -52.53028 24629 ft 360 kts 264°
2026-05-08 17:59 -24.64368 -52.55752 24190 ft 362 kts 264°
2026-05-08 17:59 -24.64809 -52.58447 23736 ft 364 kts 263°
2026-05-08 17:59 -24.65256 -52.61211 23230 ft 369 kts 263°
2026-05-08 17:59 -24.65712 -52.63981 22718 ft 367 kts 263°
2026-05-08 18:00 -24.66161 -52.66741 22241 ft 364 kts 263°
2026-05-08 18:00 -24.67055 -52.72203 21248 ft 361 kts 264°
2026-05-08 18:00 -24.67493 -52.74886 20744 ft 359 kts 264°
2026-05-08 18:01 -24.67943 -52.77625 20231 ft 359 kts 264°
2026-05-08 18:01 -24.68386 -52.80325 19696 ft 359 kts 264°
2026-05-08 18:01 -24.68827 -52.83018 19275 ft 356 kts 264°
2026-05-08 18:01 -24.69264 -52.85703 18783 ft 355 kts 264°
2026-05-08 18:02 -24.69693 -52.88345 18240 ft 356 kts 264°
2026-05-08 18:02 -24.69983 -52.90137 18050 ft 350 kts 264°
2026-05-08 18:02 -24.70553 -52.93645 17367 ft 347 kts 264°
2026-05-08 18:02 -24.70976 -52.96247 16875 ft 344 kts 264°
2026-05-08 18:03 -24.71395 -52.98825 16348 ft 341 kts 264°
2026-05-08 18:03 -24.71806 -53.01356 15769 ft 340 kts 264°
2026-05-08 18:03 -24.72220 -53.03905 15260 ft 338 kts 264°
2026-05-08 18:03 -24.72630 -53.06443 14786 ft 336 kts 264°
2026-05-08 18:04 -24.73037 -53.08962 14333 ft 333 kts 264°
2026-05-08 18:04 -24.73440 -53.11467 13866 ft 331 kts 264°
2026-05-08 18:04 -24.73841 -53.13951 13386 ft 329 kts 264°
2026-05-08 18:04 -24.74237 -53.16416 12860 ft 326 kts 264°
2026-05-08 18:05 -24.74632 -53.18864 12367 ft 324 kts 264°
2026-05-08 18:05 -24.75024 -53.21285 11800 ft 318 kts 264°
2026-05-08 18:05 -24.75408 -53.23653 11197 ft 307 kts 264°
2026-05-08 18:05 -24.75776 -53.25917 10791 ft 299 kts 264°
2026-05-08 18:06 -24.76137 -53.28173 10362 ft 298 kts 264°
2026-05-08 18:06 -24.76487 -53.30378 10122 ft 291 kts 264°
2026-05-08 18:06 -24.76832 -53.32528 10006 ft 281 kts 265°
2026-05-08 18:06 -24.77165 -53.34616 9815 ft 275 kts 265°
2026-05-08 18:07 -24.77492 -53.36666 9435 ft 275 kts 265°
2026-05-08 18:07 -24.77821 -53.38765 9042 ft 275 kts 265°
2026-05-08 18:07 -24.78147 -53.40835 8703 ft 274 kts 265°
2026-05-08 18:07 -24.78472 -53.42876 8195 ft 268 kts 266°
2026-05-08 18:08 -24.78793 -53.44879 7682 ft 264 kts 265°
2026-05-08 18:08 -24.79106 -53.46843 7336 ft 257 kts 265°
2026-05-08 18:08 -24.79414 -53.48801 6898 ft 262 kts 265°
2026-05-08 18:08 -24.79723 -53.50779 6531 ft 263 kts 265°
2026-05-08 18:09 -24.80037 -53.52757 6307 ft 260 kts 265°
2026-05-08 18:09 -24.80361 -53.54709 6070 ft 259 kts 261°
2026-05-08 18:09 -24.81119 -53.56488 5975 ft 257 kts 237°
2026-05-08 18:09 -24.82336 -53.57898 5887 ft 251 kts 230°
2026-05-08 18:10 -24.83541 -53.59215 5753 ft 242 kts 230°
2026-05-08 18:10 -24.84711 -53.60487 5638 ft 230 kts 230°
2026-05-08 18:10 -24.85818 -53.61678 5478 ft 217 kts 225°
2026-05-08 18:10 -24.87167 -53.62432 5038 ft 224 kts 193°
2026-05-08 18:11 -24.88688 -53.62228 4855 ft 219 kts 156°
2026-05-08 18:11 -24.89863 -53.61251 4695 ft 207 kts 134°
2026-05-08 18:11 -24.90860 -53.60148 4545 ft 199 kts 135°
2026-05-08 18:11 -24.91827 -53.59092 4388 ft 192 kts 135°
2026-05-08 18:12 -24.92742 -53.58093 4251 ft 177 kts 135°
2026-05-08 18:12 -24.93582 -53.57171 4142 ft 162 kts 137°
2026-05-08 18:12 -24.94366 -53.56313 3949 ft 155 kts 137°
2026-05-08 18:12 -24.95115 -53.55492 3729 ft 149 kts 140°
2026-05-08 18:13 -24.95832 -53.54707 3524 ft 143 kts 141°
2026-05-08 18:13 -24.96525 -53.53948 3332 ft 141 kts 140°
2026-05-08 18:13 -24.97224 -53.53183 3143 ft 138 kts 141°
2026-05-08 18:13 -24.97886 -53.52452 2947 ft 135 kts 138°
2026-05-08 18:14 -24.98539 -53.51715 2787 ft 133 kts 137°
2026-05-08 18:14 -24.99223 -53.50994 2613 ft 136 kts 138°
2026-05-08 18:14 -24.99874 -53.50290 2486 ft 118 kts 136°
2026-05-08 18:14 -25.00246 -53.49881 2470 ft 36 kts 135°
2026-05-08 18:15 -25.00409 -53.49703 2467 ft 32 kts 135°
2026-05-08 18:15 -25.00548 -53.49568 2466 ft 18 kts 162°
2026-05-08 18:15 -25.00570 -53.49527 2467 ft 7 kts
2026-05-08 18:15 -25.00521 -53.49577 2465 ft 14 kts 313°
2026-05-08 18:16 -25.00418 -53.49692 2471 ft 27 kts 315°
2026-05-08 18:16 -25.00260 -53.49865 2470 ft 34 kts 315°
2026-05-08 18:16 -25.00105 -53.50033 2477 ft 28 kts 315°
2026-05-08 18:16 -24.99998 -53.50161 2480 ft 12 kts 292°
2026-05-08 18:17 -25.00033 -53.50221 2480 ft 9 kts 221°
2026-05-08 18:17 -25.00090 -53.50286 2472 ft 15 kts 226°
2026-05-08 18:17 -25.00130 -53.50329 2470 ft 2 kts 224°
2026-05-08 18:17 -25.00137 -53.50337 2470 ft 1 kts 224°
2026-05-08 18:18 -25.00142 -53.50343 2470 ft 1 kts 224°
2026-05-08 18:18 -25.00143 -53.50343 2470 ft 0 kts 224°